CW4185 Weather Reports


Display with metric or nautical units.
time (UTC)temp
F
wind
direction
speed
MPH
gust
MPH
rain 1hr
in
rain 24hr
in
rain mn
in
humidity
%
barometer
mb
20260507130647 77 212 5.0 7.0 0.00 0.00 0.00 97 1013.2
20260507130147 77 193 3.0 8.0 0.00 0.00 0.00 97 1012.9
20260507125648 77 210 5.0 6.0 0.00 0.00 0.00 97 1012.9
20260507125147 77 222 5.0 9.0 0.00 0.00 0.00 97 1012.9
20260507124647 77 218 6.0 7.0 0.00 0.00 0.00 97 1012.9
20260507124147 77 188 5.0 8.0 0.00 0.00 0.00 97 1012.5
20260507123647 77 179 6.0 11.0 0.00 0.00 0.00 97 1012.5
20260507123146 77 179 5.0 7.0 0.00 0.00 0.00 97 1012.5
20260507122646 77 170 3.0 9.0 0.00 0.00 0.00 97 1012.5
20260507122147 77 188 3.0 9.0 0.00 0.00 0.00 97 1012.5
20260507121649 77 165 3.0 6.0 0.00 0.00 0.00 97 1012.5
20260507121148 77 192 2.0 5.0 0.00 0.00 0.00 97 1012.5
20260507120646 77 186 7.0 8.0 0.00 0.00 0.00 97 1012.5
20260507120146 77 186 5.0 7.0 0.00 0.00 0.00 97 1012.5
20260507115647 77 201 4.0 8.0 0.00 0.00 0.00 97 1012.2
20260507115146 77 190 5.0 7.0 0.00 0.00 0.00 98 1011.9
20260507114646 77 193 5.0 7.0 0.00 0.00 0.00 98 1012.2
20260507114146 77 159 8.0 9.0 0.00 0.00 0.00 98 1011.9
20260507113647 77 178 8.0 10.0 0.00 0.00 0.00 98 1011.9
20260507113147 77 171 5.0 6.0 0.00 0.00 0.00 98 1011.9
20260507112646 77 179 5.0 8.0 0.00 0.00 0.00 97 1011.9
20260507112147 77 181 4.0 5.0 0.00 0.00 0.00 97 1011.9
20260507111648 77 160 6.0 7.0 0.00 0.00 0.00 97 1011.5
20260507111147 77 206 3.0 6.0 0.00 0.00 0.00 97 1011.5
20260507110646 77 198 4.0 6.0 0.00 0.00 0.00 97 1011.2
20260507110147 77 176 4.0 6.0 0.00 0.00 0.00 97 1011.2
20260507105646 77 179 3.0 6.0 0.00 0.00 0.00 97 1011.2
20260507105150 77 178 6.0 8.0 0.00 0.00 0.00 97 1011.5
20260507104646 77 175 5.0 7.0 0.00 0.00 0.00 96 1011.5
20260507104147 77 179 4.0 5.0 0.00 0.00 0.00 96 1011.2
20260507103646 77 185 4.0 5.0 0.00 0.00 0.00 96 1011.2
20260507103148 77 195 2.0 5.0 0.00 0.00 0.00 96 1011.2
20260507102646 77 168 5.0 7.0 0.00 0.00 0.00 97 1011.2
20260507102147 77 162 5.0 7.0 0.00 0.00 0.00 96 1011.2
20260507101646 77 185 5.0 5.0 0.00 0.00 0.00 96 1011.2
20260507101147 77 161 4.0 5.0 0.00 0.00 0.00 96 1011.2
20260507100647 77 173 5.0 5.0 0.00 0.00 0.00 96 1010.8
20260507100147 77 196 2.0 5.0 0.00 0.00 0.00 96 1011.2
20260507095646 77 173 3.0 6.0 0.00 0.00 0.00 96 1011.2
20260507095146 77 151 1.0 4.0 0.00 0.00 0.00 96 1010.8
20260507094646 77 181 3.0 5.0 0.00 0.00 0.00 95 1010.8
20260507094147 77 171 6.0 6.0 0.00 0.00 0.00 95 1010.8
20260507093646 77 189 4.0 6.0 0.00 0.00 0.00 95 1010.8
20260507093146 77 218 2.0 4.0 0.00 0.00 0.00 95 1010.8
20260507092648 77 183 3.0 4.0 0.00 0.00 0.00 96 1010.8
20260507092146 77 196 2.0 4.0 0.00 0.00 0.00 96 1011.2
20260507091647 77 189 2.0 5.0 0.00 0.00 0.00 96 1010.8
20260507091147 77 194 2.0 5.0 0.00 0.00 0.00 95 1010.8
20260507090647 77 207 2.0 4.0 0.00 0.00 0.00 95 1011.2
20260507090147 77 253 4.0 4.0 0.00 0.00 0.00 95 1011.2
20260507085647 77 246 3.0 5.0 0.00 0.00 0.00 95 1010.8
20260507085147 77 195 3.0 5.0 0.00 0.00 0.00 95 1010.8
20260507084648 77 202 4.0 5.0 0.00 0.00 0.00 95 1010.8
20260507084147 77 195 4.0 5.0 0.00 0.00 0.00 95 1010.8
20260507083646 77 229 5.0 7.0 0.00 0.00 0.00 95 1010.5
20260507083147 77 220 2.0 7.0 0.00 0.00 0.00 95 1010.8
20260507082647 77 195 4.0 6.0 0.00 0.00 0.00 95 1010.5
20260507082147 77 192 3.0 5.0 0.00 0.00 0.00 95 1010.8
20260507081647 77 211 4.0 6.0 0.00 0.00 0.00 95 1010.8
20260507081146 77 168 4.0 4.0 0.00 0.00 0.00 96 1010.8
20260507080646 77 201 3.0 8.0 0.00 0.00 0.00 96 1010.8
20260507080146 77 207 2.0 5.0 0.00 0.00 0.00 96 1011.2
20260507075648 77 203 4.0 6.0 0.00 0.00 0.00 96 1010.8
20260507075147 77 225 2.0 5.0 0.00 0.00 0.00 95 1011.2
20260507074646 77 238 3.0 4.0 0.00 0.00 0.00 95 1011.2
20260507074146 77 202 3.0 5.0 0.00 0.00 0.00 95 1011.2
20260507073648 77 217 2.0 9.0 0.00 0.00 0.00 95 1010.8
20260507073147 77 186 4.0 5.0 0.00 0.00 0.00 95 1010.8
20260507072647 77 200 6.0 10.0 0.00 0.00 0.00 95 1011.2
20260507072146 77 202 5.0 10.0 0.00 0.00 0.00 95 1010.8
20260507071201 78 191 5.0 12.0 0.00 0.00 0.00 95 1010.8
20260507070646 78 176 5.0 9.0 0.00 0.00 0.00 95 1010.8
20260507070146 78 226 5.0 10.0 0.00 0.00 0.00 95 1011.2
20260507065646 78 183 6.0 8.0 0.00 0.00 0.00 95 1011.2
20260507065147 78 172 6.0 9.0 0.00 0.00 0.00 95 1011.2
20260507064647 78 209 6.0 10.0 0.00 0.00 0.00 94 1011.2
20260507064147 78 182 5.0 7.0 0.00 0.00 0.00 95 1011.2
20260507063647 78 180 5.0 10.0 0.00 0.00 0.00 95 1011.2
20260507063147 78 180 6.0 8.0 0.00 0.00 0.00 95 1011.2
20260507062648 78 198 4.0 11.0 0.00 0.00 0.00 95 1011.2
20260507062147 78 180 7.0 11.0 0.00 0.00 0.00 95 1010.8
20260507061646 78 185 7.0 11.0 0.00 0.00 0.00 95 1011.2
20260507061148 78 166 9.0 10.0 0.00 0.00 0.00 95 1011.2
20260507060646 78 174 11.0 13.0 0.00 0.00 0.00 95 1011.2
20260507060147 78 189 5.0 12.0 0.00 0.00 0.00 95 1011.2
20260507055646 78 188 7.0 10.0 0.00 0.00 0.00 95 1011.2
20260507055146 78 182 7.0 10.0 0.00 0.00 0.00 95 1011.5
20260507054648 78 192 9.0 14.0 0.00 0.00 0.00 95 1011.2
20260507054147 78 176 8.0 13.0 0.00 0.00 0.00 94 1011.2
20260507053647 78 172 5.0 9.0 0.00 0.00 0.00 94 1011.2
20260507053147 78 207 6.0 7.0 0.00 0.00 0.00 94 1011.2
20260507052647 78 219 8.0 9.0 0.00 0.00 0.00 94 1011.2
20260507052147 78 169 9.0 12.0 0.00 0.00 0.00 94 1011.2
20260507051647 78 177 7.0 14.0 0.00 0.00 0.00 94 1011.2
20260507051147 78 173 6.0 13.0 0.00 0.00 0.00 94 1011.2
20260507050646 78 170 10.0 14.0 0.00 0.00 0.00 95 1011.2
20260507050147 78 165 7.0 14.0 0.00 0.00 0.00 95 1011.2
20260507045646 78 174 7.0 10.0 0.00 0.00 0.02 95 1011.2
20260507045146 78 178 6.0 11.0 0.00 0.00 0.02 94 1011.2
20260507044646 78 179 7.0 13.0 0.00 0.00 0.02 94 1011.2
20260507044146 78 178 8.0 13.0 0.00 0.00 0.02 94 1011.2
20260507043646 78 183 6.0 14.0 0.00 0.00 0.02 94 1011.2
20260507043147 78 173 8.0 13.0 0.00 0.00 0.02 93 1011.2
20260507042646 78 174 8.0 15.0 0.00 0.00 0.02 93 1011.2
20260507042146 78 170 10.0 14.0 0.00 0.00 0.02 94 1011.2
20260507041646 78 157 14.0 17.0 0.00 0.00 0.02 93 1011.2
20260507041146 78 167 9.0 14.0 0.00 0.00 0.02 93 1011.2
20260507040647 78 166 11.0 16.0 0.00 0.00 0.02 93 1011.2
20260507040146 78 162 11.0 17.0 0.00 0.00 0.02 93 1011.2
20260507035646 78 180 10.0 13.0 0.00 0.00 0.02 93 1011.2
20260507035147 78 163 11.0 14.0 0.00 0.00 0.02 92 1011.2
20260507034646 78 180 8.0 13.0 0.00 0.00 0.02 92 1011.2
20260507034147 78 158 7.0 11.0 0.00 0.00 0.02 93 1011.2
20260507033647 78 175 6.0 12.0 0.00 0.00 0.02 92 1011.2
20260507033147 78 164 10.0 13.0 0.00 0.00 0.02 92 1011.2
20260507032647 78 173 9.0 13.0 0.00 0.00 0.02 92 1011.2
20260507032147 79 176 8.0 15.0 0.00 0.00 0.02 92 1011.2
20260507031648 79 167 12.0 16.0 0.00 0.00 0.02 92 1011.5
20260507031148 79 169 8.0 18.0 0.00 0.00 0.02 92 1011.2
20260507030647 79 152 10.0 15.0 0.00 0.00 0.02 92 1011.2
20260507030148 79 163 5.0 15.0 0.00 0.00 0.02 92 1011.2
20260507025647 79 150 9.0 17.0 0.00 0.00 0.02 92 1011.2
20260507025147 79 160 9.0 10.0 0.00 0.00 0.02 92 1011.2
20260507024647 79 150 6.0 14.0 0.00 0.00 0.02 92 1011.2
20260507024147 79 169 11.0 12.0 0.00 0.00 0.02 91 1011.2
20260507023646 79 160 7.0 12.0 0.00 0.00 0.02 91 1011.2
20260507023146 79 172 5.0 12.0 0.00 0.00 0.02 91 1011.5
20260507022646 79 175 7.0 9.0 0.00 0.00 0.02 91 1011.5
20260507022148 79 149 11.0 12.0 0.00 0.00 0.02 91 1011.2
20260507021646 79 184 7.0 11.0 0.00 0.00 0.02 91 1011.2
20260507021147 79 162 8.0 10.0 0.00 0.00 0.02 91 1011.2
20260507020647 79 205 5.0 12.0 0.00 0.00 0.02 91 1011.2
20260507020149 79 180 10.0 14.0 0.00 0.00 0.02 91 1011.2
20260507015646 79 187 7.0 9.0 0.00 0.00 0.02 91 1010.8
20260507015146 79 155 9.0 12.0 0.00 0.00 0.02 91 1010.8
20260507014647 79 166 8.0 12.0 0.00 0.00 0.02 91 1010.8
20260507014146 79 172 3.0 11.0 0.00 0.00 0.02 91 1010.5
20260507013646 79 168 8.0 12.0 0.00 0.00 0.02 92 1010.8
20260507013146 79 170 7.0 13.0 0.00 0.00 0.02 92 1010.8
20260507012647 79 166 7.0 10.0 0.00 0.00 0.02 92 1010.8
20260507012150 79 157 7.0 11.0 0.00 0.00 0.02 92 1010.8
20260507011646 79 160 8.0 10.0 0.00 0.00 0.02 92 1010.8
20260507011147 79 162 6.0 9.0 0.00 0.00 0.02 92 1010.5
20260507010646 79 159 11.0 12.0 0.00 0.00 0.02 92 1010.8
20260507010147 79 169 6.0 8.0 0.00 0.00 0.02 93 1010.8
20260507005647 79 166 11.0 13.0 0.00 0.00 0.02 92 1010.5
20260507005146 79 180 5.0 10.0 0.00 0.00 0.02 92 1010.5
20260507004648 80 160 9.0 13.0 0.00 0.00 0.02 92 1010.5
20260507004147 80 157 9.0 12.0 0.00 0.00 0.02 92 1010.5
20260507003647 80 156 9.0 12.0 0.00 0.00 0.02 92 1010.5
20260507003147 80 167 10.0 11.0 0.00 0.00 0.02 92 1010.5
20260507002646 80 162 5.0 15.0 0.00 0.00 0.02 91 1010.5
20260507002147 80 162 6.0 10.0 0.00 0.00 0.02 91 1010.5
20260507001647 80 159 6.0 12.0 0.00 0.00 0.02 91 1010.2
20260507001147 80 161 8.0 11.0 0.00 0.00 0.02 91 1010.5
20260507000647 80 165 7.0 15.0 0.00 0.00 0.02 91 1010.5
20260507000146 80 167 9.0 16.0 0.00 0.00 0.02 90 1010.2
20260506235646 80 145 7.0 15.0 0.00 0.00 0.02 90 1010.2
20260506235147 80 168 9.0 13.0 0.00 0.00 0.02 90 1010.2
20260506234647 80 166 11.0 15.0 0.00 0.00 0.02 90 1010.2
20260506234147 80 160 7.0 12.0 0.00 0.00 0.02 89 1010.2
20260506233646 80 169 8.0 11.0 0.00 0.00 0.02 89 1010.2
20260506233147 81 193 7.0 12.0 0.00 0.00 0.02 89 1010.2
20260506232647 81 169 9.0 16.0 0.00 0.00 0.02 88 1010.2
20260506232147 81 151 11.0 13.0 0.00 0.00 0.02 88 1010.2
20260506231646 81 167 10.0 15.0 0.00 0.00 0.02 87 1009.8
20260506231147 81 164 8.0 19.0 0.00 0.00 0.02 87 1009.8
20260506230646 81 170 15.0 18.0 0.00 0.00 0.02 87 1009.8
20260506230146 81 164 11.0 17.0 0.00 0.00 0.02 87 1010.2
20260506225646 82 154 8.0 10.0 0.00 0.00 0.02 87 1010.2
20260506225147 81 167 8.0 16.0 0.00 0.00 0.02 87 1010.2
20260506224646 82 190 11.0 13.0 0.00 0.00 0.02 86 1010.2
20260506224146 82 166 13.0 19.0 0.00 0.00 0.02 86 1010.2
20260506223646 82 170 13.0 14.0 0.00 0.00 0.02 85 1010.2
20260506223147 82 141 10.0 15.0 0.00 0.00 0.02 85 1010.2
20260506222647 82 155 9.0 13.0 0.00 0.00 0.02 84 1010.2
20260506222146 83 175 9.0 13.0 0.00 0.00 0.02 84 1010.5
20260506221651 83 182 12.0 18.0 0.00 0.00 0.02 82 1010.5
20260506221146 83 162 7.0 16.0 0.00 0.00 0.02 83 1010.5
20260506220647 83 166 12.0 18.0 0.00 0.00 0.02 82 1010.5
20260506220147 83 178 10.0 17.0 0.00 0.00 0.02 82 1010.5
20260506215646 83 169 14.0 20.0 0.00 0.00 0.02 82 1010.8
20260506215146 84 172 10.0 15.0 0.00 0.00 0.02 80 1010.5
20260506214646 84 170 9.0 14.0 0.00 0.00 0.02 81 1010.5
20260506214147 84 164 14.0 18.0 0.00 0.00 0.02 80 1010.5
20260506213646 83 179 13.0 16.0 0.00 0.00 0.02 81 1010.5
20260506213149 84 156 11.0 18.0 0.00 0.00 0.02 80 1010.8
20260506212648 84 175 7.0 14.0 0.00 0.00 0.02 80 1010.8
20260506212147 84 171 12.0 17.0 0.00 0.00 0.02 79 1010.8
20260506211646 84 137 14.0 17.0 0.00 0.00 0.02 80 1010.8
20260506211147 84 170 14.0 16.0 0.00 0.00 0.02 79 1010.8
20260506210646 84 163 10.0 14.0 0.00 0.00 0.02 80 1010.8
20260506210147 84 159 9.0 16.0 0.00 0.00 0.02 79 1010.8
20260506205647 84 166 17.0 21.0 0.00 0.00 0.02 78 1010.8
20260506205146 85 180 11.0 12.0 0.00 0.00 0.02 79 1010.5
20260506204647 84 186 10.0 16.0 0.00 0.00 0.02 80 1010.8
20260506204147 84 173 11.0 14.0 0.00 0.00 0.02 80 1011.2
20260506203647 84 159 10.0 18.0 0.00 0.00 0.02 81 1011.2
20260506203147 84 144 7.0 18.0 0.00 0.00 0.02 81 1011.2
20260506202647 85 168 11.0 15.0 0.00 0.00 0.02 79 1011.2
20260506202146 84 167 8.0 16.0 0.00 0.00 0.02 79 1011.2
20260506201647 84 168 12.0 20.0 0.00 0.00 0.02 78 1011.5
20260506201147 84 151 11.0 21.0 0.00 0.00 0.02 78 1011.9
20260506200157 84 164 10.0 16.0 0.00 0.00 0.02 79 1011.5
20260506195648 84 151 9.0 14.0 0.00 0.00 0.02 80 1011.9
20260506195147 84 151 9.0 12.0 0.00 0.00 0.02 80 1011.9
20260506194647 84 168 14.0 15.0 0.00 0.00 0.02 79 1012.2
20260506194147 83 180 8.0 12.0 0.00 0.00 0.02 80 1011.9
20260506193647 83 181 7.0 14.0 0.00 0.00 0.02 81 1012.2
20260506193147 83 166 12.0 17.0 0.00 0.00 0.02 80 1012.2
20260506192648 83 175 9.0 12.0 0.00 0.00 0.02 81 1012.2
20260506192146 83 171 8.0 14.0 0.00 0.00 0.02 80 1012.5
20260506191647 83 163 10.0 15.0 0.00 0.00 0.02 80 1012.5
20260506191147 83 165 11.0 15.0 0.00 0.00 0.02 80 1012.2
20260506190647 83 157 6.0 10.0 0.00 0.00 0.02 80 1012.5
20260506190148 83 161 9.0 13.0 0.00 0.00 0.02 79 1012.9
20260506185646 84 164 8.0 13.0 0.00 0.00 0.02 79 1012.5
20260506185147 84 137 10.0 13.0 0.00 0.00 0.02 79 1012.5
20260506184647 84 172 9.0 12.0 0.00 0.00 0.02 81 1012.9
20260506183724 83 177 5.0 12.0 0.00 0.00 0.02 81 1013.2
20260506183147 83 177 9.0 13.0 0.00 0.00 0.02 81 1013.2
20260506182647 83 163 10.0 15.0 0.00 0.00 0.02 80 1012.9
20260506182147 83 185 9.0 14.0 0.00 0.00 0.02 80 1013.2
20260506181647 83 157 9.0 12.0 0.00 0.00 0.02 80 1012.9
20260506181147 83 154 7.0 17.0 0.00 0.00 0.02 80 1012.9
20260506180646 83 180 7.0 14.0 0.00 0.00 0.02 80 1012.9
20260506180146 84 167 9.0 17.0 0.00 0.00 0.02 80 1012.9
20260506175646 83 201 10.0 13.0 0.00 0.00 0.02 81 1013.2
20260506175147 83 185 11.0 16.0 0.00 0.00 0.02 83 1013.2
20260506174646 83 161 12.0 16.0 0.00 0.00 0.02 82 1013.2
20260506174147 82 201 6.0 12.0 0.00 0.00 0.02 84 1013.2
20260506173648 82 170 7.0 11.0 0.00 0.00 0.02 85 1013.2
20260506173147 82 160 7.0 12.0 0.00 0.00 0.02 86 1013.2
20260506172647 82 170 9.0 10.0 0.00 0.00 0.02 87 1013.5
20260506172147 81 184 7.0 9.0 0.00 0.00 0.02 88 1013.5
20260506171647 80 173 10.0 11.0 0.00 0.00 0.02 88 1013.5
20260506171147 80 163 11.0 11.0 0.00 0.00 0.02 90 1013.5
20260506170646 80 157 10.0 12.0 0.02 0.00 0.02 91 1013.5
20260506170147 80 172 4.0 11.0 0.02 0.00 0.02 91 1013.5
20260506165650 80 166 12.0 14.0 0.00 0.00 0.01 89 1013.9
20260506165147 80 168 9.0 15.0 0.00 0.00 0.01 88 1013.5
20260506164647 81 161 11.0 13.0 0.00 0.00 0.01 87 1013.5
20260506164147 81 164 5.0 14.0 0.00 0.00 0.01 88 1013.5
20260506163648 80 170 6.0 15.0 0.00 0.00 0.01 88 1013.5
20260506163146 81 180 7.0 13.0 0.00 0.00 0.01 88 1013.5
20260506162647 80 174 10.0 13.0 0.00 0.00 0.01 88 1013.2
20260506162146 81 170 9.0 14.0 0.00 0.00 0.01 87 1013.2
20260506161647 81 152 10.0 11.0 0.00 0.00 0.01 87 1012.9
20260506161146 81 160 6.0 8.0 0.00 0.00 0.01 88 1013.2
20260506160648 80 183 8.0 12.0 0.00 0.00 0.01 89 1013.2
20260506160147 80 197 5.0 16.0 0.00 0.00 0.01 88 1013.2
20260506155647 81 167 9.0 12.0 0.00 0.00 0.01 88 1012.9
20260506155147 81 186 8.0 10.0 0.00 0.00 0.01 89 1012.9
20260506154647 80 170 8.0 13.0 0.00 0.00 0.01 89 1013.2
20260506154147 80 163 9.0 13.0 0.00 0.00 0.01 89 1013.2
20260506153647 80 169 8.0 11.0 0.00 0.00 0.01 90 1012.9
20260506153147 79 159 11.0 13.0 0.00 0.00 0.01 90 1012.9
20260506152646 79 176 11.0 15.0 0.00 0.00 0.01 91 1012.9
20260506152146 79 184 9.0 13.0 0.00 0.00 0.01 91 1012.9
20260506151647 79 163 6.0 10.0 0.00 0.00 0.01 91 1012.9
20260506151147 79 172 7.0 11.0 0.00 0.00 0.01 91 1012.9
20260506150646 79 164 9.0 11.0 0.00 0.00 0.01 91 1012.9
20260506150147 79 173 8.0 11.0 0.00 0.00 0.01 91 1012.9
20260506145647 79 153 8.0 15.0 0.00 0.00 0.01 92 1012.9
20260506145147 79 167 8.0 11.0 0.00 0.00 0.01 92 1012.9
20260506144646 78 167 10.0 12.0 0.00 0.00 0.01 93 1012.9
20260506144147 78 175 6.0 13.0 0.00 0.00 0.01 93 1012.9
20260506143648 78 163 11.0 13.0 0.00 0.00 0.01 93 1012.9
20260506143146 78 164 10.0 13.0 0.00 0.00 0.01 93 1012.9
20260506142647 78 147 7.0 12.0 0.00 0.00 0.01 94 1012.5
20260506142147 78 169 5.0 13.0 0.00 0.00 0.01 94 1012.2
20260506141647 78 156 6.0 11.0 0.00 0.00 0.01 94 1012.5
20260506141154 77 178 9.0 11.0 0.00 0.00 0.01 95 1012.5
20260506140647 77 168 7.0 11.0 0.00 0.00 0.01 95 1012.5
20260506140149 77 170 6.0 12.0 0.00 0.00 0.01 95 1012.5
20260506135647 77 162 9.0 13.0 0.00 0.00 0.01 95 1012.2
20260506135147 77 153 8.0 8.0 0.00 0.00 0.01 96 1012.5
20260506134647 77 151 5.0 9.0 0.00 0.00 0.01 96 1012.5
20260506134147 77 178 8.0 11.0 0.00 0.00 0.01 96 1012.5
20260506133647 77 142 6.0 12.0 0.00 0.00 0.01 97 1012.5
20260506133146 76 161 5.0 8.0 0.00 0.00 0.01 97 1012.5
20260506132646 76 146 4.0 9.0 0.00 0.00 0.01 97 1012.5
20260506132148 76 170 6.0 10.0 0.00 0.00 0.01 98 1012.5
20260506131646 76 159 5.0 8.0 0.00 0.00 0.01 98 1012.2
20260506131146 76 164 6.0 8.0 0.00 0.00 0.01 98 1012.5